Hourly Weather Roundup
Issued by NWS Central Illinois

Home | Current Version | Previous Version | Text Only | Print | Product List | Glossary On
Versions: 1 2 3 4 5 6 7 8 9 10 11 12 13 14 15 16 17 18 19 20 21 22 23 24 25 26 27 28 29 30 31 32 33 34 35 36 37 38 39 40 41 42 43 44 45 46 47 48 49 50
000
NZUS43 KILX 202210
HWRILX

AREA WEATHER ROUNDUP
NATIONAL WEATHER SERVICE, LINCOLN IL
500 PM CDT SUN APR 20 2014


CITY           SKY/WX    TMP DP  RH WIND       PRES   REMARKS
BLOOMINGTON    SUNNY     77  40  26 S14       30.09F
CHAMPAIGN      SUNNY     79  39  23 S8        30.10F
DANVILLE       SUNNY     76  39  26 S9        30.09F
DECATUR        MOSUNNY   77  42  28 S10       30.09F
FLORA          NOT AVBL
GALESBURG      MOSUNNY   79  49  33 S10G17    30.03F
JACKSONVILLE   MOSUNNY   80  40  24 SE10      30.07F
LACON          SUNNY     79  42  26 SW10      30.04F
LAWRENCEVILLE  SUNNY     76  40  27 VRB3      30.12F
LITCHFIELD     SUNNY     75  46  35 CALM      30.10S
$$


CITY           SKY/WX    TMP DP  RH WIND       PRES   REMARKS
LINCOLN        SUNNY     80  39  23 S13G20    30.05F
MACOMB         SUNNY     82  44  27 S8        30.05F HX  80
MATTOON        SUNNY     74  43  32 SW9       30.11F
MT CARMEL AP   SUNNY     79  36  21 SW3       30.12F
OLNEY-NOBLE AP SUNNY     73  43  33 CALM      30.12F
PARIS          SUNNY     75  40  28 S5        30.13F
PEORIA         MOSUNNY   81  42  25 SW9       30.04F
PONTIAC        SUNNY     81  37  21 S7        30.07F
RANTOUL        SUNNY     79  34  19 CALM      30.11F
ROBINSON       SUNNY     78  46  31 S5        30.13F
SPRINGFIELD    MOSUNNY   80  39  23 S13       30.07F
TAYLORVILLE    MOSUNNY   77  43  29 S9G16     30.09S
$$

...REGIONAL REPORTS...


CITY           SKY/WX    TMP DP  RH WIND       PRES   REMARKS
CHICAGO O`HARE PTSUNNY   78  39  24 S12       30.06F
KANKAKEE       SUNNY     77  42  28 S5        30.09F
MOLINE         MOSUNNY   81  45  28 SW7       30.00F HX  80
MOUNT VERNON   SUNNY     77  45  31 SW7       30.12S
PITTSFIELD     MOSUNNY   81  41  24 SE10      30.06F
QUINCY         MOSUNNY   79  48  33 SW10      30.04F
ROCKFORD       PTSUNNY   80  39  23 S9G21     30.05F
$$


CITY           SKY/WX    TMP DP  RH WIND       PRES   REMARKS
BURLINGTON     MOSUNNY   82  48  30 SW14      30.01F HX  81
CEDAR RAPIDS   PTSUNNY   80  46  30 S15       29.98F
DES MOINES     PTSUNNY   83  52  34 SW12G24   29.94F HX  82
KIRKSVILLE     PTSUNNY   79  48  33 S14G21    30.04F
OTTUMWA        CLOUDY    80  47  31 SW16      29.99F
ST LOUIS       MOSUNNY   82  39  21 SE10      30.06F HX  80
$$


CITY           SKY/WX    TMP DP  RH WIND       PRES   REMARKS
TERRE HAUTE    MOSUNNY   74  39  28 CALM      30.13F
EVANSVILLE     SUNNY     79  36  21 NE5       30.13F
INDIANAPOLIS   PTSUNNY   73  31  21 S5        30.13F
LAFAYETTE      SUNNY     74  37  26 SE3       30.12F
MADISON        CLOUDY    71  46  40 N6        30.03F
MILWAUKEE      PTSUNNY   71  41  33 SE12      30.06F
$$




USA.gov is the U.S. government's official web portal to all federal, state and local government web resources and services.